Theta_e
350 350 350 346 347 349 350 349 348 349 349 347 349 349 346 346 345 344 344 344 345 344 345 345 344 340 338 340 340 340 341 336 338 337 338 337 337 338 336 333 336 335 335
348 349 349 349 349 349 350 348 347 348 345 348 348 347 346 345 344 344 344 344 343 343 345 345 345 345 341 340 340 340 341 339 337 339 337 339 336 337 336 335 333 332 332
348 348 348 348 348 348 347 345 347 347 347 348 346 345 346 345 342 346 346 345 344 344 344 344 344 341 341 340 340 341 342 340 338 340 337 336 335 334 336 335 334 334 332
349 348 349 350 351 345 349 349 348 347 345 349 348 348 350 349 348 348 345 345 345 345 344 343 344 338 338 339 343 342 342 343 337 337 338 337 337 334 334 336 335 336 336
349 349 351 349 349 348 350 350 350 349 348 344 350 344 339 341 343 340 343 344 343 345 345 345 344 345 344 343 338 340 341 342 340 339 342 338 337 337 336 336 336 335 337
350 350 350 351 349 349 350 350 349 349 347 346 344 348 343 339 342 346 348 346 344 343 345 345 346 344 342 338 341 342 343 341 341 339 340 340 337 339 337 335 335 336 336
350 348 348 350 351 347 347 347 349 350 350 348 348 349 350 346 343 350 347 346 346 346 346 346 345 344 337 340 339 339 340 341 339 340 340 339 339 337 337 336 335 336 336
351 349 348 348 348 346 347 350 349 349 347 344 347 351 350 348 349 350 349 348 348 346 345 344 345 340 337 337 336 336 336 336 341 340 340 341 340 338 336 337 335 335 336
352 352 350 348 348 350 350 350 351 352 350 346 345 348 351 348 350 351 349 349 347 346 344 344 343 336 336 337 336 336 335 335 335 337 339 341 340 338 337 336 334 335 335
351 349 351 349 348 348 350 349 352 352 351 349 349 350 351 352 351 352 351 347 346 346 345 343 337 335 336 336 334 334 334 335 335 336 336 336 339 338 340 338 335 333 333
353 351 352 349 347 351 351 352 352 352 350 350 348 351 353 351 349 352 349 347 346 346 345 341 337 336 334 334 333 332 332 333 333 333 334 335 337 337 338 339 337 337 333
350 351 351 350 349 351 351 351 353 351 350 347 349 348 350 351 350 352 352 348 346 344 344 340 336 334 334 334 332 330 328 330 334 335 336 337 336 341 339 337 336 338 334
349 350 349 351 350 351 351 351 352 352 350 343 348 349 348 346 349 351 349 347 345 344 342 339 335 334 333 333 329 326 327 330 336 336 336 335 333 335 336 337 337 336 335
341 347 347 354 354 352 352 352 350 350 349 344 348 348 349 342 350 350 348 347 345 343 341 337 335 333 332 329 325 323 329 332 334 336 336 334 333 331 329 332 333 335 334
338 341 345 350 355 355 355 353 352 351 350 345 346 347 350 341 343 344 347 345 344 344 341 338 335 333 330 325 323 327 329 332 333 334 331 329 330 332 332 331 330 332 334
346 342 339 344 349 353 353 353 351 351 350 346 347 349 351 344 338 341 344 345 342 343 340 338 335 332 327 322 324 327 329 331 331 329 329 329 329 329 329 330 332 330 331
347 347 347 344 340 340 345 347 348 351 350 344 349 349 350 347 334 339 343 343 342 342 341 336 333 329 323 323 325 326 329 329 331 331 330 329 329 327 325 328 331 331 331
347 347 347 347 347 343 340 341 344 350 351 345 348 350 350 348 334 335 342 341 341 341 337 335 331 327 322 322 324 325 326 327 327 328 328 329 329 325 324 324 328 330 330
348 347 347 347 346 346 342 340 339 348 350 345 350 349 350 349 338 334 340 341 342 340 336 331 327 322 321 320 320 322 325 326 326 326 327 327 327 325 323 325 326 328 328
348 348 347 345 341 340 342 340 338 348 349 344 348 346 347 349 341 333 338 340 341 339 331 328 325 323 324 322 321 321 320 321 323 325 327 327 326 325 325 325 326 327 326
350 349 348 348 346 343 339 338 340 341 343 342 346 344 345 348 344 330 336 340 341 338 331 329 325 327 326 324 326 321 322 319 319 322 325 326 325 326 326 325 326 326 325
352 355 355 352 350 349 348 342 341 341 340 342 345 343 344 347 342 330 336 340 340 330 329 329 328 327 325 326 324 325 321 323 323 319 322 321 321 324 326 325 325 326 325
327 330 338 352 355 354 351 350 345 344 340 341 343 344 347 347 344 331 335 339 335 328 327 327 327 324 322 323 324 324 324 324 324 318 322 322 320 324 325 325 324 325 327
318 319 321 325 333 347 355 352 351 346 341 336 344 343 343 343 345 331 335 340 332 328 326 328 328 325 323 323 324 325 325 322 317 317 319 324 319 324 323 324 325 324 323
319 318 317 317 322 329 350 355 353 351 346 339 341 340 341 342 345 334 335 340 331 329 326 328 328 326 325 324 325 326 328 329 323 324 319 326 325 324 324 324 323 324 324
318 318 318 316 316 323 335 353 354 353 352 349 343 337 341 338 343 338 331 339 332 330 328 330 329 328 327 326 326 327 329 330 327 325 325 327 327 327 327 323 322 322 323
Wind_Speed
5 5 6 7 9 9 10 9 9 10 12 11 12 13 15 12 13 13 15 16 16 17 18 20 19 18 19 15 17 21 25 29 30 30 28 26 23 20 17 18 19 17 16
4 5 7 8 9 11 9 7 9 10 14 12 13 15 15 14 16 17 19 18 16 16 15 16 18 17 20 25 25 26 23 25 31 32 31 27 24 22 23 19 19 18 17
4 5 6 7 9 6 5 8 10 12 14 16 16 17 17 16 16 20 21 19 16 13 12 12 14 16 19 24 28 27 25 28 26 28 34 31 27 27 26 27 23 20 18
5 4 4 7 9 5 7 6 9 13 15 19 19 19 20 20 20 22 20 17 13 11 12 12 14 16 18 26 28 27 23 22 29 29 37 32 33 32 31 27 26 22 18
5 6 7 6 7 5 7 8 11 15 19 19 19 20 20 20 20 16 14 13 13 13 13 15 18 20 23 27 20 15 14 16 19 23 26 31 31 33 33 33 30 26 21
7 7 6 6 6 7 9 11 14 16 19 20 20 19 20 13 12 13 16 13 12 12 13 16 19 22 22 12 8 7 5 11 13 18 24 29 34 33 35 38 35 32 26
6 5 5 5 7 7 10 12 13 14 15 19 20 19 15 14 2 19 13 11 13 13 15 16 19 21 13 7 7 7 5 8 14 15 19 25 32 41 31 32 36 34 29
7 5 6 6 8 9 10 10 12 16 19 20 19 14 13 12 9 11 15 15 17 13 16 18 19 17 10 6 6 6 5 4 3 11 16 20 27 28 36 35 36 32 32
8 8 8 9 9 11 12 13 15 16 19 20 19 11 10 14 23 13 14 20 16 15 15 17 16 11 9 9 10 9 8 6 6 7 12 19 24 28 33 37 35 35 33
8 7 9 10 10 11 13 14 17 16 20 21 20 19 15 16 12 13 16 18 21 18 14 15 13 9 7 8 11 11 9 8 9 9 11 13 15 19 31 36 36 40 39
11 10 11 11 10 12 15 17 17 16 19 22 18 18 17 16 16 17 19 23 22 18 14 11 11 7 8 9 11 11 10 9 9 10 9 11 15 19 23 27 37 42 40
15 14 12 9 10 12 15 16 15 15 18 20 17 18 19 15 15 17 19 22 21 18 13 10 7 6 9 11 13 12 9 7 4 6 6 7 8 12 32 25 33 39 38
18 17 15 13 12 13 13 14 12 14 18 17 16 17 21 19 16 17 16 18 19 14 9 10 7 8 10 11 13 12 7 4 1 4 4 4 8 13 16 22 26 37 39
19 19 17 15 13 14 14 16 14 16 16 14 15 17 20 18 17 16 14 16 14 9 8 7 7 8 9 9 11 8 6 4 3 4 7 7 10 10 11 15 16 16 35
17 18 17 18 17 17 18 17 16 16 16 14 14 16 19 19 17 16 14 12 10 5 6 5 4 8 9 9 7 6 4 4 6 6 6 7 7 8 12 13 13 17 31
17 18 19 21 21 21 21 21 20 14 16 15 16 17 18 20 18 18 10 8 9 7 5 5 5 6 6 5 6 6 3 4 6 7 6 6 7 8 8 10 13 19 22
22 21 20 21 23 24 23 22 19 16 15 15 16 18 18 19 18 17 9 7 9 7 7 5 5 2 1 5 6 6 6 5 6 6 6 9 10 9 8 7 15 18 23
21 22 23 23 23 24 23 22 21 19 16 15 17 18 17 17 17 15 6 6 8 6 5 5 5 3 3 5 7 6 7 6 4 4 5 8 12 11 8 7 9 19 17
18 18 20 22 21 21 21 20 19 19 17 16 17 17 17 16 16 14 7 6 7 5 5 5 5 6 5 6 6 6 7 7 8 6 4 9 9 12 11 7 4 14 13
16 16 17 18 18 18 20 19 19 19 18 18 17 17 17 15 14 11 8 6 5 4 6 6 6 7 6 6 6 5 6 6 7 6 6 9 13 12 11 14 7 15 12
15 17 18 19 19 18 18 19 20 22 21 18 17 19 19 16 14 10 8 6 4 4 8 8 8 7 6 6 5 5 5 5 6 6 7 8 9 10 11 13 10 12 14
10 12 15 20 22 22 20 17 18 20 20 19 18 19 19 16 13 10 8 6 5 5 8 10 8 8 8 7 7 5 6 6 3 6 6 5 6 7 14 14 12 11 14
10 13 15 16 17 22 24 22 17 20 21 22 23 22 19 13 14 11 10 7 8 9 10 7 7 7 9 7 8 7 6 4 5 8 8 5 7 7 13 13 13 11 12
16 16 17 17 20 22 20 24 22 23 26 28 27 23 23 16 14 11 12 10 11 10 12 13 10 9 8 9 8 7 6 6 6 8 9 5 7 6 12 13 14 12 12
21 22 25 25 24 21 21 22 27 30 30 30 31 27 26 19 14 11 13 14 14 13 13 15 13 12 11 10 9 8 7 7 7 7 7 6 7 7 7 9 13 15 14
24 23 24 29 28 26 24 22 26 31 34 35 33 29 30 20 15 12 13 17 17 16 15 15 14 13 12 12 9 9 7 7 8 6 7 7 9 8 5 7 11 13 14
Wind_Direction
316 316 318 315 317 317 314 324 336 340 334 320 323 323 328 323 328 328 324 311 301 296 294 283 276 270 262 279 284 260 243 229 230 223 216 218 213 215 212 214 207 202 203
296 307 312 316 318 311 301 315 328 333 342 333 326 325 329 321 324 322 319 318 307 299 295 290 289 284 271 277 289 299 248 234 229 225 217 213 207 209 206 215 211 206 206
297 315 325 333 325 334 325 324 325 332 339 335 334 332 332 321 317 319 314 311 308 307 310 304 293 287 276 283 286 290 293 230 226 232 210 213 206 204 209 207 207 207 206
317 324 349 344 350 326 330 338 345 340 337 338 335 335 332 326 315 315 315 313 308 302 316 316 310 300 288 291 291 287 278 248 225 239 200 206 206 205 205 204 209 210 208
306 309 305 313 344 333 326 336 333 334 334 334 334 330 326 321 321 329 333 326 316 304 307 305 311 303 302 304 301 295 261 239 232 235 210 208 208 206 206 205 207 208 202
307 298 294 309 314 318 322 332 333 331 334 337 332 329 335 339 336 353 331 326 322 315 308 304 308 310 317 320 324 338 260 227 222 223 221 214 211 208 208 205 205 209 204
306 288 272 289 304 329 334 330 337 343 345 341 338 332 331 348 321 344 349 346 342 330 317 313 312 315 321 335 357 3 352 243 237 234 223 219 223 213 205 206 206 204 201
293 298 285 286 302 314 316 326 334 339 345 344 340 337 338 350 335 334 350 353 348 344 326 320 316 318 320 331 343 343 327 332 253 222 217 220 214 217 211 209 206 204 201
265 286 293 296 294 301 314 320 322 332 334 340 340 338 340 335 335 340 350 348 350 339 331 323 317 317 325 328 327 324 303 277 260 240 237 231 225 217 210 211 209 205 201
269 290 306 299 292 298 310 316 319 324 326 334 336 344 340 331 333 328 334 343 341 334 326 331 323 321 327 329 327 325 308 284 269 256 236 234 236 229 227 219 208 205 205
265 286 307 290 282 302 308 307 308 318 324 330 333 339 337 333 334 326 326 334 336 333 324 323 323 318 328 334 337 338 329 298 272 260 244 240 241 224 214 219 210 206 204
269 280 296 290 283 297 318 314 303 314 319 326 332 338 335 325 316 324 322 326 327 324 320 321 310 308 327 322 335 330 325 327 285 241 211 206 209 221 209 196 208 198 202
269 275 280 284 284 295 307 320 311 311 319 324 329 333 334 328 320 321 326 322 322 317 307 318 306 306 318 326 335 330 341 335 242 211 182 151 137 142 172 194 205 214 209
266 270 272 276 284 289 297 307 304 312 320 321 322 326 331 330 322 319 316 319 319 308 298 297 314 313 328 333 338 344 11 34 153 191 182 150 162 177 173 181 208 228 206
271 267 269 266 271 278 289 296 302 308 317 316 313 320 327 330 327 321 318 321 317 292 298 293 295 320 340 350 352 22 27 76 104 136 142 134 161 172 184 192 197 185 192
281 279 272 268 269 273 282 292 301 302 313 313 314 316 325 332 331 326 326 322 336 304 288 270 274 316 345 8 37 50 78 91 112 135 169 172 144 162 184 200 189 196 197
277 275 278 277 273 273 276 283 288 290 304 310 314 317 320 330 332 327 338 338 329 310 282 250 247 295 22 61 65 74 101 93 94 115 168 174 172 146 132 154 198 198 198
272 273 272 272 275 272 273 273 277 283 295 302 305 307 316 327 333 329 320 314 312 305 280 245 214 201 151 103 87 88 109 106 95 123 149 173 168 157 122 110 171 179 156
273 267 268 271 272 270 272 273 270 273 284 292 295 305 310 321 327 324 310 307 303 293 274 198 199 179 159 119 104 111 109 99 86 90 155 199 164 158 170 140 138 169 169
271 270 266 269 275 274 266 266 265 264 276 285 289 296 298 310 316 312 297 295 283 246 220 179 176 173 159 144 126 119 102 99 92 86 124 137 151 149 151 181 171 169 162
284 277 271 268 269 269 268 267 264 263 266 271 278 284 290 296 306 305 284 278 265 215 195 184 179 180 176 168 150 164 132 117 105 110 126 150 160 160 163 172 168 169 172
346 331 309 285 274 268 270 263 261 261 258 250 263 276 281 287 300 297 278 261 238 196 200 194 187 185 186 174 154 157 130 126 133 138 132 149 145 149 163 173 169 169 176
342 327 314 307 302 283 265 259 254 252 247 241 248 258 265 278 292 279 267 233 211 196 179 200 193 187 192 178 160 152 136 117 139 154 136 143 158 147 164 168 168 169 175
319 312 306 304 296 292 285 259 245 243 242 241 245 251 252 271 273 265 250 226 205 196 187 178 178 176 183 175 152 155 142 109 140 152 148 141 160 160 175 174 176 173 178
309 306 304 299 291 287 280 269 246 239 240 242 243 245 256 252 264 262 240 224 203 192 184 182 181 179 181 184 179 164 155 128 139 154 168 145 155 161 163 177 186 187 185
303 295 288 290 290 281 275 266 254 248 244 242 240 247 250 255 264 255 240 224 209 197 187 183 187 189 190 184 183 165 176 156 152 155 185 153 160 156 165 199 194 192 193